AirNav   Everest Fuels
 
 908 users online  

22PA Uniontown Hospital Heliport
Uniontown, Pennsylvania, USA

GOING TO UNIONTOWN?


FAA INFORMATION EFFECTIVE 18 JUNE 2020

Location

FAA Identifier: 22PA
Lat/Long: 39-54-03.2740N 079-44-41.1590W
39-54.054567N 079-44.685983W
39.9009094,-79.7447664
(estimated)
Elevation: 1115 ft. / 340 m (estimated)
Variation: 09W (2000)
Time zone: UTC -4 (UTC -5 during Standard Time)
Zip code: 15401

Heliport Operations

Heliport use: Private use, MEDICAL
Activation date: 03/1990
Control tower: no
ARTCC: CLEVELAND CENTER
FSS: ALTOONA FLIGHT SERVICE STATION
NOTAMs facility: FDC (NOTAM-D service not available)
Attendance: UNATNDD
Segmented circle: no
Lights: FOR PERIMETER LGTS CALL 412-430-5000

Heliport Communications

CLARKSBURG APPROACH: 126.95
CLARKSBURG DEPARTURE: 126.95
WX AWOS-3 at VVS (5 nm NE): 133.325 (724-626-8745)
WX ASOS at MGW (17 nm SW): 120.675 (304-296-7103)
WX AWOS-3 at FWQ (19 nm N): 118.475 (724-379-5815)
  • APCH/DEP SVC PRVDD BY NORTH CENTRAL WEST VIRGINIA ATCT (CKB) 126.950/239.300.

Nearby radio navigation aids

VOR radial/distance  VOR name  Freq  Var
IHDr262/18.3INDIAN HEAD VORTAC108.2006W
MGWr019/21.3MORGANTOWN VOR/DME111.6005W
AGCr158/26.4ALLEGHENY VOR/DME110.0009W

 
NDB name  Hdg/Dist  Freq  Var  ID
CAMOR008/1.129908WVV ...- ...-
STOYSTOWN264/39.720910WSYS ... -.-- ...

Heliport Services

Runway Information

Helipad H1

Dimensions: 65 x 65 ft. / 20 x 20 m
Surface: asphalt
Runway edge lights: PERIMETER LGTS.
Latitude: 39-54.054567N
Longitude: 079-44.685983W
Elevation: 1115.0 ft.
Traffic pattern: leftleft

Heliport Ownership and Management from official FAA records

Ownership: Privately-owned
Owner: UNIONTOWN HOSPITAL
500 WEST BERKLEY ST
UNIONTOWN, PA 15401
Phone (724) 430-5000
Manager: RANDY HOVATTER
500 WEST BERKLEY ST
UNIONTOWN, PA 15401
DIRECTOR OF FACILITIES MGMT

Additional Remarks

FOR CD CTC JOHNSTOWN APCH AT 814-532-5960, WHEN APCH CLSD CTC CLEVELAND ARTCC AT 440-774-0234.

Instrument Procedures

There are no published instrument procedures at 22PA.

Some nearby airports with instrument procedures:

KVVS - Joseph A Hardy Connellsville Airport (5 nm NE)
KMGW - Morgantown Municipal Airport-Walter L. Bill Hart Field (17 nm SW)
KWAY - Greene County Airport (18 nm W)
KFWQ - Rostraver Airport (19 nm N)
G05 - Finleyville Airpark (24 nm NW)
 
Loc | Ops | Rwys | IFR | FBO | Links
Com | Nav | Svcs | Stats | Notes
Area around 22PA (Uniontown Hospital Heliport)
 
Road maps at: MapQuest Bing Google
 
Aerial photo
No photo
 
Sectional chart

 
Airport distance calculator
Flying to Uniontown Hospital Heliport? Find the distance to fly.

From to 22PA

Sunrise and sunset
Times for 07-Jul-2020
 Local
(UTC-4)
 Zulu
(UTC)
Morning civil twilight05:2709:27
Sunrise05:5909:59
Sunset20:4900:49
Evening civil twilight21:2101:21

Current date and time
Zulu (UTC)  08-Jul-2020 01:48:54
Local (UTC-4)  07-Jul-2020 21:48:54
 
METAR
KMGW 
17nm SW 
080108Z 17005KT 7SM -RA FEW030 SCT090 BKN110 22/20 A3006 RMK AO2 LTG DSNT S-W RAB03 TSE02E07 P0000 T02170200
KP53 
19nm N 
080056Z AUTO 00000KT 20/18 A2993 RMK AO1 SLP133 T02000183
K2G4 
27nm SE 
080135Z AUTO 34003KT 7SM CLR 17/17 A3014 RMK AO1
KLBE 
27nm NE 
080047Z 00000KT 4SM -RA FEW006 BKN036 21/21 A3006
KAFJ 
27nm NW 
080056Z AUTO VRB04KT 10SM CLR 22/20 A3006 RMK AO2 SLP171 T02220200
KAGC 
28nm N 
080053Z 00000KT 10SM CLR 23/19 A3003 RMK AO2 SLP163 T02330194
TAF
KMGW 
17nm SW 
071956Z 0720/0818 23005KT P6SM VCSH SCT050 TEMPO 0722/0801 5SM TSRA OVC050CB FM080200 00000KT P6SM SCT080 FM081300 00000KT P6SM SCT250
NOTAMs
Click for the latest NOTAMs
NOTAMs are issued by the DoD/FAA and will open in a separate window not controlled by AirNav.

 

 
 

Would you like to see your business listed on this page?

 If your business provides an interesting product or service to pilots, flight crews, aircraft, or users of the Uniontown Hospital Heliport, you should consider listing it here.  To start the listing process, click on the button below
 
Add a business
 

Other Pages about Uniontown Hospital Heliport

Update a link
 
Copyright © AirNav, LLC. All rights reserved. Privacy Policy  Contact